Date String (YYYY-MM-DD hh:mm:ss) UTC,Instrument flags,absolute air pressure of the measurement (hPa),sample flow rate (lpm),inlet stack bypass flow (lpm),air temperature of the measurement (°C),ambient temperature measured by the external sensor (°C),aerosol sample conditioner tube jacket temperature (°C),OPC LED temperature (°C),internal box temperature (°C),relative humidity of the measurement (%),span deviation,mass concentration of particles derived from Lorenz-Mie calculation of OPC scattering (μg/m³),mass concentration of particles derived from Lorenz-Mie calculation of OPC scattering (μg/m³),mass concentration of particles derived from Lorenz-Mie calculation of OPC scattering (μg/m³)
DateTimeUTC,F1_M11,P_M11,Q1_M11,Q2_M11,T1_M11,T2_M11,T3_M11,T4_M11,T5_M11,U1_M11,ZSPAN_M11,X2_M11,X0_M11,X1_M11
2024-04-13 01:00:00,SystemResetWarning,0827.2,5.01,000.00,025.2,024.8,000.0,033.2,027.2,010.7,0000.0,0003.59,0011.96,0001.86
2024-04-13 01:01:00,SystemResetWarning,0827.2,5.00,000.00,025.3,025.0,000.0,033.2,027.3,010.4,0000.0,0003.54,0011.71,0001.86
2024-04-13 01:02:00,SystemResetWarning,0827.2,5.00,000.00,025.4,025.1,000.0,033.3,027.4,010.0,0000.0,0003.51,0011.99,0001.86
2024-04-13 01:03:00,SystemResetWarning,0827.2,4.99,000.00,025.4,024.8,000.0,033.4,027.2,009.7,0000.0,0003.50,0011.44,0001.87
2024-04-13 01:04:00,SystemResetWarning,0827.2,5.00,000.00,025.2,022.8,000.0,033.5,026.1,009.6,0000.0,0003.51,0011.35,0001.89
2024-04-13 01:05:00,SystemResetWarning,0827.2,5.01,000.00,024.9,022.4,000.0,033.5,025.8,009.8,0000.0,0003.46,0011.35,0001.92
2024-04-13 01:06:00,SystemResetWarning,0827.2,5.01,000.00,024.8,022.7,000.0,033.4,025.9,009.8,0000.0,0003.45,0011.33,0001.93
2024-04-13 01:07:00,SystemResetWarning,0827.2,5.00,000.00,024.8,023.0,000.0,033.3,026.2,009.7,0000.0,0003.42,0011.39,0001.93
2024-04-13 01:08:00,SystemResetWarning,0827.1,4.99,000.00,024.8,023.3,000.0,033.2,026.5,009.7,0000.0,0003.44,0011.24,0001.92
2024-04-13 01:09:00,SystemResetWarning,0827.2,4.99,000.00,024.9,023.6,000.0,033.2,026.7,009.6,0000.0,0003.50,0011.40,0001.92
2024-04-13 01:10:00,SystemResetWarning,0827.2,5.00,000.00,025.0,023.9,000.0,033.2,026.8,010.0,0000.0,0003.52,0011.36,0001.93
2024-04-13 01:11:00,SystemResetWarning,0827.2,5.01,000.00,025.1,024.1,000.0,033.2,026.9,010.1,0000.0,0003.55,0011.39,0001.96
2024-04-13 01:12:00,SystemResetWarning,0827.2,5.00,000.00,025.1,024.3,000.0,033.3,027.1,010.2,0000.0,0003.57,0011.16,0001.95
2024-04-13 01:13:00,SystemResetWarning,0827.2,5.01,000.00,025.2,024.5,000.0,033.3,027.1,010.3,0000.0,0003.55,0010.00,0001.92
2024-04-13 01:14:00,SystemResetWarning,0827.2,5.00,000.00,025.3,024.7,000.0,033.3,027.2,010.3,0000.0,0003.57,0009.69,0001.91
2024-04-13 01:15:00,SystemResetWarning,0827.1,4.99,000.00,025.4,024.9,000.0,033.4,027.3,010.1,0000.0,0003.62,0009.44,0001.91
2024-04-13 01:16:00,SystemResetWarning,0827.1,4.99,000.00,025.4,025.0,000.0,033.4,027.4,010.3,0000.0,0003.59,0008.97,0001.90
2024-04-13 01:17:00,SystemResetWarning,0827.1,4.99,000.00,025.5,024.5,000.0,033.5,027.1,010.4,0000.0,0003.60,0009.26,0001.90
2024-04-13 01:18:00,SystemResetWarning,0827.1,5.00,000.00,025.1,022.5,000.0,033.5,026.0,010.4,0000.0,0003.63,0009.23,0001.90
2024-04-13 01:19:00,SystemResetWarning,0827.1,5.02,000.00,024.9,022.3,000.0,033.5,025.7,010.3,0000.0,0003.63,0009.71,0001.90
2024-04-13 01:20:00,SystemResetWarning,0827.1,5.00,000.00,024.8,022.6,000.0,033.4,025.9,010.3,0000.0,0003.61,0009.77,0001.91
2024-04-13 01:21:00,SystemResetWarning,0827.1,5.00,000.00,024.8,022.9,000.0,033.3,026.2,010.3,0000.0,0003.58,0009.82,0001.91
2024-04-13 01:22:00,SystemResetWarning,0827.1,5.00,000.00,024.8,023.3,000.0,033.3,026.5,010.3,0000.0,0003.57,0010.25,0001.90
2024-04-13 01:23:00,SystemResetWarning,0827.2,4.99,000.00,024.9,023.6,000.0,033.3,026.6,010.4,0000.0,0003.55,0010.01,0001.90
2024-04-13 01:24:00,SystemResetWarning,0827.2,5.00,000.00,025.0,023.8,000.0,033.3,026.8,010.3,0000.0,0003.56,0010.05,0001.92
2024-04-13 01:25:00,SystemResetWarning,0827.2,4.99,000.00,025.0,024.1,000.0,033.3,026.9,010.3,0000.0,0003.53,0010.68,0001.93
2024-04-13 01:26:00,SystemResetWarning,0827.2,5.01,000.00,025.1,024.3,000.0,033.3,027.0,010.5,0000.0,0003.52,0011.28,0001.93
2024-04-13 01:27:00,SystemResetWarning,0827.2,5.00,000.00,025.2,024.4,000.0,033.3,027.1,010.4,0000.0,0003.50,0012.39,0001.91
2024-04-13 01:28:00,SystemResetWarning,0827.2,4.99,000.00,025.3,024.6,000.0,033.3,027.2,010.4,0000.0,0003.47,0012.27,0001.90
2024-04-13 01:29:00,SystemResetWarning,0827.2,4.99,000.00,025.3,024.7,000.0,033.4,027.3,010.4,0000.0,0003.44,0012.30,0001.89
2024-04-13 01:30:00,SystemResetWarning,0827.2,5.00,000.00,025.4,024.9,000.0,033.4,027.3,010.5,0000.0,0003.45,0012.48,0001.89
2024-04-13 01:31:00,SystemResetWarning,0827.2,5.00,000.00,025.4,024.1,000.0,033.5,026.8,010.6,0000.0,0003.44,0012.64,0001.87
2024-04-13 01:32:00,SystemResetWarning,0827.1,5.02,000.00,025.0,022.2,000.0,033.5,025.8,010.8,0000.0,0003.46,0012.54,0001.86
2024-04-13 01:33:00,SystemResetWarning,0827.2,5.01,000.00,024.8,022.2,000.0,033.5,025.6,010.9,0000.0,0003.45,0012.31,0001.86
2024-04-13 01:34:00,SystemResetWarning,0827.2,4.98,000.00,024.7,022.5,000.0,033.3,025.8,010.8,0000.0,0003.50,0012.63,0001.86
2024-04-13 01:35:00,SystemResetWarning,0827.2,5.00,000.00,024.7,022.9,000.0,033.2,026.1,010.9,0000.0,0003.55,0012.51,0001.85
2024-04-13 01:36:00,SystemResetWarning,0827.2,5.01,000.00,024.8,023.2,000.0,033.2,026.4,010.8,0000.0,0003.55,0012.00,0001.85
2024-04-13 01:37:00,SystemResetWarning,0827.2,5.01,000.00,024.8,023.5,000.0,033.2,026.6,010.9,0000.0,0003.53,0011.48,0001.87
2024-04-13 01:38:00,SystemResetWarning,0827.3,5.00,000.00,024.9,023.8,000.0,033.2,026.7,010.9,0000.0,0003.55,0011.29,0001.87
2024-04-13 01:39:00,SystemResetWarning,0827.3,5.00,000.00,025.0,024.0,000.0,033.2,026.8,010.7,0000.0,0003.58,0010.98,0001.88
2024-04-13 01:40:00,SystemResetWarning,0827.3,5.00,000.00,025.0,024.2,000.0,033.2,026.9,010.6,0000.0,0003.61,0011.10,0001.88
2024-04-13 01:41:00,SystemResetWarning,0827.4,5.00,000.00,025.1,024.4,000.0,033.2,027.0,010.7,0000.0,0003.64,0011.19,0001.88
2024-04-13 01:42:00,SystemResetWarning,0827.3,5.00,000.00,025.2,024.5,000.0,033.3,027.1,010.5,0000.0,0003.65,0011.26,0001.88
2024-04-13 01:43:00,SystemResetWarning,0827.3,4.99,000.00,025.2,024.7,000.0,033.3,027.2,010.5,0000.0,0003.60,0011.74,0001.88
2024-04-13 01:44:00,SystemResetWarning,0827.4,5.00,000.00,025.3,024.8,000.0,033.4,027.3,010.5,0000.0,0003.59,0011.44,0001.88
2024-04-13 01:45:00,SystemResetWarning,0827.4,5.00,000.00,025.4,024.9,000.0,033.4,027.4,010.4,0000.0,0003.56,0011.24,0001.88
2024-04-13 01:46:00,SystemResetWarning,0827.4,4.98,000.00,025.3,023.9,000.0,033.5,026.7,010.3,0000.0,0003.56,0011.16,0001.89
2024-04-13 01:47:00,SystemResetWarning,0827.3,5.01,000.00,024.9,022.1,000.0,033.5,025.6,010.5,0000.0,0003.54,0010.89,0001.89
2024-04-13 01:48:00,SystemResetWarning,0827.3,5.01,000.00,024.7,022.1,000.0,033.5,025.5,010.7,0000.0,0003.53,0010.86,0001.89
2024-04-13 01:49:00,SystemResetWarning,0827.3,4.99,000.00,024.6,022.4,000.0,033.3,025.7,010.7,0000.0,0003.48,0010.24,0001.87
2024-04-13 01:50:00,SystemResetWarning,0827.4,5.00,000.00,024.7,022.8,000.0,033.2,026.1,010.7,0000.0,0003.46,0009.99,0001.88
2024-04-13 01:51:00,SystemResetWarning,0827.4,5.01,000.00,024.7,023.1,000.0,033.2,026.4,010.7,0000.0,0003.45,0009.91,0001.90
2024-04-13 01:52:00,SystemResetWarning,0827.4,4.99,000.00,024.8,023.4,000.0,033.2,026.5,010.7,0000.0,0003.47,0010.63,0001.91
2024-04-13 01:53:00,SystemResetWarning,0827.4,5.00,000.00,024.8,023.7,000.0,033.2,026.7,010.6,0000.0,0003.46,0010.46,0001.91
2024-04-13 01:54:00,SystemResetWarning,0827.4,5.00,000.00,024.9,023.9,000.0,033.2,026.8,010.6,0000.0,0003.49,0010.37,0001.91
2024-04-13 01:55:00,SystemResetWarning,0827.4,5.00,000.00,025.0,024.2,000.0,033.2,026.9,010.6,0000.0,0003.50,0010.72,0001.91
2024-04-13 01:56:00,SystemResetWarning,0827.7,5.00,000.00,025.1,024.3,000.0,033.2,027.0,010.5,0000.0,0003.48,0010.77,0001.88
2024-04-13 01:57:00,SystemResetWarning,0827.7,4.99,000.00,025.1,024.5,000.0,033.2,027.1,010.4,0000.0,0003.42,0011.20,0001.87
2024-04-13 01:58:00,SystemResetWarning,0827.8,5.00,000.00,025.2,024.6,000.0,033.3,027.2,010.4,0000.0,0003.41,0011.43,0001.86
2024-04-13 01:59:00,SystemResetWarning,0827.5,5.00,000.00,025.3,024.7,000.0,033.3,027.2,010.4,0000.0,0003.45,0012.09,0001.86
